This is the latest recevied weather packets stored in our database for station/object KQ4PPF. If no packets are shown the sender has not sent any weather packets the latest 10 day(s).
| Time | Temp. | Humidity | Pressure | Rain* | Wind** | Luminosity | Snow |
|---|---|---|---|---|---|---|---|
| 1778156331 | 12.78° C | 99% | 1012.3 hPa | 0 mm | - | 29 W/m² | - |
| 1778156027 | 12.78° C | 99% | 1012.4 hPa | 0 mm | - | 25 W/m² | - |
| 1778155724 | 13.33° C | 99% | 1012.4 hPa | 0 mm | - | 31 W/m² | - |
| 1778155420 | 13.33° C | 99% | 1012.2 hPa | 0 mm | - | 40 W/m² | - |
| 1778155117 | 13.33° C | 99% | 1011.9 hPa | 0 mm | - | 29 W/m² | - |
| 1778154812 | 13.33° C | 99% | 1012 hPa | 0 mm | - | 20 W/m² | - |
| 1778154508 | 13.33° C | 99% | 1012.4 hPa | 0 mm | - | 15 W/m² | - |
| 1778154205 | 13.33° C | 99% | 1012.5 hPa | 0 mm | - | 8 W/m² | - |
| 1778153903 | 13.33° C | 99% | 1012.4 hPa | 0 mm | - | 6 W/m² | - |
| 1778153600 | 13.33° C | 99% | 1011.8 hPa | 0 mm | - | 11 W/m² | - |
| 1778153297 | 13.33° C | 99% | 1011.7 hPa | 0 mm | - | 7 W/m² | - |
| 1778152994 | 13.33° C | 99% | 1011.6 hPa | 0 mm | - | 4 W/m² | - |
| 1778152692 | 13.33° C | 99% | 1011.6 hPa | 0 mm | - | 4 W/m² | - |
| 1778152388 | 13.33° C | 99% | 1011.8 hPa | 0 mm | - | 0 W/m² | - |
| 1778152084 | 13.33° C | 99% | 1011.5 hPa | 0 mm | - | 0 W/m² | - |
| 1778151781 | 13.33° C | 99% | 1011.6 hPa | 0 mm | - | 0 W/m² | - |
| 1778151478 | 13.33° C | 99% | 1011.4 hPa | 0 mm | - | 0 W/m² | - |
| 1778151174 | 13.33° C | 99% | 1011.3 hPa | 0 mm | - | 0 W/m² | - |
| 1778150871 | 13.89° C | 99% | 1011.4 hPa | 0 mm | - | 0 W/m² | - |
| 1778150568 | 13.89° C | 99% | 1010.9 hPa | 0 mm | - | 0 W/m² | - |
| 1778150264 | 13.89° C | 99% | 1011.1 hPa | 0 mm | - | 0 W/m² | - |
| 1778149960 | 13.89° C | 99% | 1011.2 hPa | 0 mm | - | 0 W/m² | - |
| 1778149656 | 13.89° C | 99% | 1010.9 hPa | 0 mm | - | 0 W/m² | - |
| 1778149353 | 13.89° C | 99% | 1011.1 hPa | 0 mm | - | 0 W/m² | - |
| 1778149050 | 13.89° C | 99% | 1011.3 hPa | 0 mm | - | 0 W/m² | - |
* Rain latest hour (hover to see other rain measurements)
** Current wind speed in m/s (hover to see current wind gust speed)